RADUGA-1M 3

Last updated on Sat Apr 13 2024 01:02:38 GMT+0100 (British Summer Time)

1 39375U 13062A 24103.54285656 .00000147 00000+0 00000+0 0 9990 2 39375 3.9275 82.0780 0002433 174.4948 175.0998 1.00272063 38123
UTC large
Height (km)
Speed (km/s)
/
Latitude / Longitude
Inclination (degrees)
Orbital Period (minutes)
Azimuth
Elevation
Range (km)
Doppler Factor

Next 0 passes for location: London (51.5072 / 0.1276)

Sorry there are no passes over London.